Location: Unspecified
(43.4680°N, 87.1740°E)
Time: 16:19:25
(UTC+00:00)

SKYMED 2 - Pass Details

Date: 17 January 2020
Orbit: 621 x 623 km, 97.9° (Epoch: 26 February)

Event Time Altitude Azimuth Distance (km) Brightness Sun altitude
Rises 22:54:33 0° 151° (SSE) 2,892 7.4 -29.6°
Reaches altitude 10° 22:56:47 10° 145° (SE) 1,990 6.6 -29.2°
Maximum altitude 23:00:56 47° 72° (ENE) 832 4.5 -28.5°
Enters shadow 23:01:08 46° 63° (ENE) 836 4.4 -28.4°
